This is the latest recevied weather packets stored in our database for station/object KC2WGU. If no packets are shown the sender has not sent any weather packets the latest 10 day(s).
| Time | Temp. | Humidity | Pressure | Rain* | Wind** | Luminosity | Snow |
|---|---|---|---|---|---|---|---|
| 1777927821 | 20.56° C | 45% | 1003.7 hPa | 0 mm | - | 0 W/m² | - |
| 1777927220 | 20° C | 44% | 1003.7 hPa | 0 mm | - | 0 W/m² | - |
| 1777926621 | 20.56° C | 42% | 1003.9 hPa | 0 mm | - | 0 W/m² | - |
| 1777926021 | 20.56° C | 46% | 1003.9 hPa | 0 mm | - | 0 W/m² | - |
| 1777925420 | 20.56° C | 43% | 1003.9 hPa | 0 mm | - | 0 W/m² | - |
| 1777924820 | 20° C | 44% | 1004.1 hPa | 0 mm | - | 0 W/m² | - |
| 1777924221 | 20° C | 45% | 1004.2 hPa | 0 mm | - | 0 W/m² | - |
| 1777923620 | 19.44° C | 47% | 1004.3 hPa | 0 mm | - | 0 W/m² | - |
| 1777923022 | 19.44° C | 46% | 1004.4 hPa | 0 mm | - | 0 W/m² | - |
| 1777922421 | 20° C | 47% | 1004.4 hPa | 0 mm | - | 0 W/m² | - |
| 1777921820 | 19.44° C | 47% | 1004.4 hPa | 0 mm | - | 0 W/m² | - |
| 1777921225 | 20° C | 47% | 1004.5 hPa | 0 mm | - | 0 W/m² | - |
| 1777920620 | 18.89° C | 49% | 1004.6 hPa | 0 mm | - | 0 W/m² | - |
| 1777920020 | 18.89° C | 48% | 1004.8 hPa | 0 mm | - | 0 W/m² | - |
| 1777919421 | 18.89° C | 48% | 1004.8 hPa | 0 mm | - | 0 W/m² | - |
| 1777918821 | 18.33° C | 46% | 1004.8 hPa | 0 mm | - | 0 W/m² | - |
| 1777918220 | 18.89° C | 49% | 1004.8 hPa | 0 mm | - | 0 W/m² | - |
| 1777917620 | 18.33° C | 49% | 1004.9 hPa | 0 mm | - | 0 W/m² | - |
| 1777917020 | 18.89° C | 49% | 1005 hPa | 0 mm | - | 0 W/m² | - |
| 1777916421 | 20° C | 49% | 1005 hPa | 0 mm | - | 0 W/m² | - |
| 1777915821 | 19.44° C | 50% | 1005 hPa | 0 mm | - | 0 W/m² | - |
| 1777915221 | 19.44° C | 50% | 1004.9 hPa | 0 mm | - | 0 W/m² | - |
| 1777914620 | 19.44° C | 50% | 1005.1 hPa | 0 mm | - | 0 W/m² | - |
| 1777914021 | 18.89° C | 49% | 1005.2 hPa | 0 mm | - | 0 W/m² | - |
| 1777913420 | 18.33° C | 51% | 1005.3 hPa | 0 mm | - | 0 W/m² | - |
* Rain latest hour (hover to see other rain measurements)
** Current wind speed in m/s (hover to see current wind gust speed)